ANIK F3

Last updated on Thu Jul 03 2025 00:02:44 GMT+0000 (Coordinated Universal Time)

1 31102U 07009A 25183.54307694 .00000007 00000+0 00000+0 0 9995 2 31102 0.2923 88.4978 0001988 25.6627 243.4337 1.00271485 43059
UTC large
Height (km)
Speed (km/s)
/
Latitude / Longitude
Inclination (degrees)
Orbital Period (minutes)
Azimuth
Elevation
Range (km)
Doppler Factor

Next 0 passes for location: London (51.5072 / 0.1276)

Sorry there are no passes over London.